| time (UTC) | temp C | wind direction | speed KPH | gust KPH | rain 1hr cm | rain 24hr cm | rain mn cm | humidity % | barometer mb |
| 20260505174108 | 11 | 185 | 0.0 | 0.0 | 0.00 | 0.84 | 0.84 | 88 | 1007.6 |
| 20260505173114 | 11 | 198 | 0.0 | 0.0 | 0.00 | 0.84 | 0.84 | 89 | 1007.7 |
| 20260505165113 | 11 | 159 | 0.0 | 0.0 | 0.00 | 0.84 | 0.84 | 89 | 1007.8 |
| 20260505164113 | 11 | 159 | 0.0 | 0.0 | 0.00 | 0.84 | 0.84 | 89 | 1007.9 |
| 20260505161113 | 11 | 159 | 0.0 | 1.6 | 0.00 | 0.84 | 0.84 | 90 | 1007.9 |
| 20260505153112 | 11 | 165 | 0.0 | 0.0 | 0.00 | 0.84 | 0.84 | 91 | 1008.1 |
| 20260505152112 | 11 | 165 | 0.0 | 0.0 | 0.00 | 0.84 | 0.84 | 91 | 1008.1 |
| 20260505124111 | 10 | 174 | 0.0 | 0.0 | 0.00 | 0.89 | 0.84 | 93 | 1008.9 |
| 20260505122110 | 10 | 170 | 0.0 | 0.0 | 0.00 | 0.89 | 0.84 | 93 | 1009.0 |
| 20260505121110 | 10 | 170 | 0.0 | 0.0 | 0.00 | 0.89 | 0.84 | 93 | 1009.0 |
| 20260505111110 | 10 | 200 | 0.0 | 0.0 | 0.00 | 0.89 | 0.84 | 94 | 1009.3 |
| 20260505095109 | 9 | 282 | 0.0 | 1.6 | 0.00 | 0.89 | 0.84 | 94 | 1009.5 |
| 20260505094109 | 9 | 188 | 0.0 | 0.0 | 0.00 | 0.89 | 0.84 | 94 | 1009.6 |
| 20260505091113 | 8 | 171 | 0.0 | 0.0 | 0.05 | 0.89 | 0.84 | 94 | 1009.5 |
| 20260505085113 | 8 | 167 | 0.0 | 0.0 | 0.05 | 0.89 | 0.84 | 94 | 1009.5 |
| 20260505082113 | 8 | 165 | 0.0 | 0.0 | 0.05 | 0.89 | 0.81 | 94 | 1009.7 |
| 20260505081113 | 8 | 161 | 0.0 | 0.0 | 0.05 | 0.86 | 0.79 | 94 | 1009.7 |
| 20260505073112 | 8 | 188 | 0.0 | 0.0 | 0.03 | 0.84 | 0.79 | 94 | 1009.6 |
| 20260505072112 | 8 | 188 | 0.0 | 1.6 | 0.03 | 0.84 | 0.79 | 94 | 1009.6 |
| 20260505065112 | 7 | 228 | 0.0 | 0.0 | 0.05 | 0.81 | 0.76 | 94 | 1009.5 |
| 20260505064112 | 7 | 227 | 0.0 | 1.6 | 0.05 | 0.81 | 0.76 | 94 | 1009.5 |
| 20260505063112 | 7 | 233 | 0.0 | 0.0 | 0.05 | 0.81 | 0.76 | 94 | 1009.6 |
| 20260505061111 | 7 | 196 | 0.0 | 0.0 | 0.05 | 0.79 | 0.74 | 94 | 1009.6 |
| 20260505060112 | 8 | 231 | 0.0 | 1.6 | 0.05 | 0.79 | 0.74 | 94 | 1009.6 |
| 20260505053111 | 8 | 238 | 0.0 | 0.0 | 0.03 | 0.76 | 0.71 | 94 | 1009.7 |
| 20260505052111 | 8 | 258 | 0.0 | 0.0 | 0.05 | 0.76 | 0.71 | 93 | 1009.6 |
| 20260505051111 | 8 | 273 | 0.0 | 0.0 | 0.05 | 0.76 | 0.71 | 93 | 1009.6 |
| 20260505031110 | 8 | 165 | 0.0 | 1.6 | 0.23 | 0.64 | 0.58 | 93 | 1009.7 |
| 20260505023110 | 9 | 261 | 0.0 | 1.6 | 0.28 | 0.51 | 0.43 | 92 | 1009.8 |
| 20260505021109 | 9 | 214 | 0.0 | 0.0 | 0.18 | 0.41 | 0.33 | 92 | 1009.8 |
| 20260505020109 | 9 | 226 | 0.0 | 0.0 | 0.13 | 0.33 | 0.25 | 92 | 1009.8 |
| 20260505013114 | 10 | 198 | 0.0 | 0.0 | 0.03 | 0.23 | 0.15 | 92 | 1010.0 |
| 20260505011114 | 10 | 250 | 0.0 | 1.6 | 0.03 | 0.23 | 0.15 | 91 | 1010.0 |
| 20260505005113 | 10 | 223 | 0.0 | 0.0 | 0.03 | 0.20 | 0.15 | 91 | 1010.2 |
| 20260505002113 | 10 | 224 | 0.0 | 0.0 | 0.03 | 0.20 | 0.15 | 91 | 1010.5 |
| 20260504235113 | 11 | 241 | 0.0 | 0.0 | 0.05 | 0.18 | 0.13 | 90 | 1010.6 |
| 20260504233112 | 11 | 355 | 0.0 | 0.0 | 0.13 | 0.18 | 0.13 | 90 | 1010.6 |
| 20260504230113 | 12 | 355 | 0.0 | 0.0 | 0.10 | 0.15 | 0.10 | 88 | 1011.0 |
| 20260504225112 | 12 | 355 | 0.0 | 0.0 | 0.08 | 0.15 | 0.08 | 87 | 1011.0 |
| 20260504224112 | 12 | 355 | 0.0 | 0.0 | 0.05 | 0.10 | 0.05 | 86 | 1011.1 |
| 20260504222112 | 13 | 355 | 0.0 | 0.0 | 0.00 | 0.05 | 0.00 | 82 | 1011.3 |
| 20260504213111 | 13 | 350 | 0.0 | 0.0 | 0.00 | 0.05 | 0.05 | 83 | 1011.8 |
| 20260504211111 | 13 | 169 | 0.0 | 0.0 | 0.00 | 0.05 | 0.05 | 82 | 1011.3 |
| 20260504210111 | 13 | 169 | 0.0 | 0.0 | 0.00 | 0.05 | 0.05 | 82 | 1011.3 |
| 20260504205111 | 13 | 169 | 0.0 | 0.0 | 0.00 | 0.05 | 0.05 | 82 | 1011.2 |
| 20260504204111 | 13 | 169 | 0.0 | 0.0 | 0.00 | 0.05 | 0.05 | 82 | 1011.3 |
| 20260504203111 | 13 | 169 | 0.0 | 0.0 | 0.00 | 0.05 | 0.05 | 81 | 1011.1 |
| 20260504202111 | 13 | 169 | 0.0 | 0.0 | 0.00 | 0.05 | 0.05 | 81 | 1011.1 |
| 20260504200110 | 14 | 169 | 0.0 | 0.0 | 0.00 | 0.05 | 0.05 | 79 | 1011.2 |
| 20260504195110 | 14 | 169 | 0.0 | 0.0 | 0.00 | 0.05 | 0.05 | 79 | 1011.2 |
| 20260504194111 | 14 | 169 | 0.0 | 0.0 | 0.00 | 0.05 | 0.05 | 78 | 1011.3 |
| 20260504193110 | 15 | 169 | 0.0 | 0.0 | 0.00 | 0.05 | 0.05 | 78 | 1011.2 |
| 20260504185110 | 15 | 169 | 0.0 | 0.0 | 0.00 | 0.05 | 0.05 | 76 | 1011.1 |
| 20260504184109 | 15 | 164 | 0.0 | 0.0 | 0.00 | 0.05 | 0.05 | 76 | 1011.1 |
| 20260504182110 | 16 | 159 | 0.0 | 0.0 | 0.00 | 0.05 | 0.05 | 75 | 1011.0 |
| 20260504181109 | 16 | 159 | 0.0 | 0.0 | 0.00 | 0.05 | 0.05 | 74 | 1010.8 |
| 20260504180109 | 16 | 159 | 0.0 | 0.0 | 0.00 | 0.05 | 0.05 | 74 | 1010.8 |
| 20260504175109 | 16 | 149 | 0.0 | 0.0 | 0.00 | 0.05 | 0.05 | 73 | 1010.7 |